Theta_e
317 318 321 321 322 318 320 325 326 323 321 321 321 320 318 314 313 314 315 314 313 311 310 309 308 308 308 308 309 311 312 313 313 314 313 311 310 309 308 308 308 308 308 308
317 319 319 318 318 318 319 323 323 324 320 319 320 320 320 317 314 314 315 314 313 310 308 309 308 308 308 308 308 309 310 312 312 312 311 311 309 308 307 306 305 305 306 306
319 316 317 317 318 318 319 321 321 323 319 316 316 319 318 317 315 314 314 314 313 311 309 308 308 308 307 306 306 306 308 309 310 310 310 309 308 307 306 304 303 302 302 302
317 315 316 316 317 317 320 317 316 318 321 324 318 325 322 319 318 315 314 314 313 311 310 308 307 307 305 303 304 304 305 306 309 309 309 309 309 307 304 302 302 300 299 299
316 315 315 317 316 316 317 315 316 319 319 321 321 322 320 320 320 317 314 313 313 311 309 308 306 306 303 302 303 303 303 304 306 307 308 308 306 304 302 301 301 298 297 296
315 311 314 315 315 316 315 315 316 317 317 320 319 319 319 319 320 319 315 312 312 311 309 307 306 303 302 301 301 301 301 301 302 304 305 305 304 302 301 301 299 296 294 293
314 314 312 312 315 315 315 316 318 320 320 320 317 320 319 317 317 316 316 312 311 310 308 305 302 301 300 300 301 300 299 298 299 300 301 301 301 300 299 298 297 294 292 290
312 313 313 311 314 316 315 315 318 321 324 319 316 318 317 315 310 308 309 312 310 309 306 303 301 300 300 300 299 298 297 296 296 297 297 297 297 297 296 294 293 291 289 288
310 311 312 311 312 314 315 316 314 315 313 317 315 315 313 309 308 309 309 311 310 307 304 301 300 300 298 298 297 296 295 294 294 294 294 293 293 293 292 291 290 288 287 286
310 311 312 312 311 312 314 314 316 315 316 320 315 315 316 314 311 307 309 310 308 305 302 300 299 297 296 295 295 294 293 292 291 291 290 290 289 290 290 289 288 287 286 285
309 310 312 312 312 314 314 314 315 313 314 318 317 314 309 313 312 307 307 308 306 304 300 297 296 295 293 292 291 291 290 289 288 288 288 287 287 287 287 286 286 285 285 285
309 311 310 312 311 311 312 313 315 316 316 314 315 315 310 308 309 308 306 306 304 301 298 295 294 292 290 289 289 288 288 288 287 287 286 286 285 285 285 285 285 285 284 284
309 310 310 311 311 310 311 312 313 314 315 316 317 315 307 306 306 307 305 303 302 299 297 295 293 290 289 288 288 287 286 285 285 285 284 284 283 283 283 283 283 284 284 284
310 310 310 306 306 310 312 312 312 313 317 317 316 315 311 308 307 305 304 302 301 299 297 295 292 290 289 288 287 286 285 284 284 283 283 283 282 282 282 282 283 283 283 283
310 312 309 309 308 307 308 311 312 313 314 316 316 315 314 312 310 305 304 302 301 299 297 296 292 290 289 287 286 285 284 283 283 283 282 282 282 282 282 282 282 282 282 282
309 310 309 309 309 309 310 309 310 312 313 313 313 313 312 310 311 307 303 302 301 299 298 296 292 290 289 287 285 284 283 283 283 282 282 282 281 281 281 281 281 281 281 281
306 310 310 311 308 309 310 309 309 309 309 312 314 313 312 311 311 311 304 302 301 299 297 296 293 291 289 286 285 284 283 282 282 282 282 281 281 281 281 280 280 280 279 280
301 303 305 311 307 313 310 307 307 307 308 308 309 310 310 309 309 307 304 304 301 299 297 296 294 291 289 286 285 283 282 282 282 281 281 281 280 280 280 280 279 279 279 278
301 301 304 307 310 309 307 307 307 307 308 307 307 307 307 307 305 305 306 305 303 300 298 297 294 292 288 286 284 283 282 281 281 281 281 280 280 280 279 279 279 278 278 278
300 301 301 301 305 310 306 305 305 305 309 306 306 307 306 305 306 307 306 305 303 301 300 297 294 291 288 285 283 282 281 281 281 281 280 280 280 280 279 279 279 278 278 277
301 302 303 303 303 303 304 304 305 310 309 306 306 306 306 306 306 306 304 303 303 302 298 296 292 290 287 285 283 282 281 281 281 281 280 280 279 279 279 279 278 278 277 277
296 298 303 305 305 305 303 304 308 306 304 303 303 304 304 303 303 304 304 301 299 297 296 294 291 289 287 284 283 282 281 281 281 280 280 279 279 279 278 278 278 277 277 277
297 296 296 299 300 302 300 303 300 299 300 300 299 298 299 300 301 301 300 298 297 296 295 292 290 288 285 283 283 282 281 280 280 279 278 278 278 278 278 278 277 276 276 276
294 293 298 296 297 298 298 299 299 299 300 297 296 297 296 296 297 298 296 295 295 294 293 291 289 287 284 283 282 282 280 280 279 278 278 278 277 277 277 277 276 276 275 275
294 294 295 298 298 298 298 298 298 298 297 296 295 295 295 294 296 295 296 293 294 293 291 289 288 285 283 282 282 281 279 279 278 277 277 276 276 276 276 276 276 276 276 277
292 294 296 296 296 298 298 297 297 296 298 297 294 294 293 292 294 293 292 292 291 290 289 287 286 284 282 281 280 279 278 278 278 276 275 275 275 275 275 275 275 275 275 275
Wind_Speed
5 3 4 9 8 5 2 6 5 5 4 2 12 12 9 10 8 8 8 8 8 7 8 10 9 9 10 8 7 5 3 5 5 5 5 8 7 6 6 7 7 9 9 10
2 5 6 6 4 3 2 5 5 2 4 2 7 12 12 9 12 13 10 9 8 8 7 11 10 10 9 11 8 7 5 4 4 5 8 6 6 5 6 7 9 10 11 11
5 3 5 5 3 4 4 4 4 3 4 3 5 10 12 11 9 10 9 11 10 13 11 9 13 12 11 9 10 8 7 6 4 6 7 9 8 7 6 6 8 11 12 13
7 3 5 7 6 6 5 6 2 5 3 2 5 6 6 14 17 15 14 11 15 13 11 11 15 13 11 9 9 9 9 8 9 7 8 9 8 9 6 6 7 11 11 11
1 7 5 6 7 6 1 4 2 3 5 6 5 4 5 6 13 15 16 13 11 13 12 10 15 15 13 10 10 10 8 8 10 8 7 8 10 10 8 7 9 7 10 12
5 3 2 5 6 5 4 3 2 1 3 3 10 8 4 3 7 9 12 14 13 13 12 13 16 15 12 11 11 11 10 9 10 10 8 8 10 9 9 9 9 8 9 12
7 7 2 1 5 5 5 4 1 2 2 5 1 8 9 13 7 8 8 15 13 12 11 10 13 15 13 12 11 12 12 11 11 11 12 11 12 13 11 10 10 9 10 12
8 4 10 8 8 5 10 8 4 4 2 3 2 6 5 3 3 6 4 4 12 11 10 9 14 15 16 13 12 11 13 13 12 12 12 11 10 12 11 10 11 11 13 12
4 8 5 10 5 7 8 11 8 7 2 1 5 7 8 5 2 1 3 8 13 13 11 11 16 18 17 16 14 13 12 13 13 13 12 12 12 13 15 13 14 15 13 12
5 5 1 4 3 6 4 1 6 3 3 5 6 8 8 5 6 7 6 8 9 10 9 10 14 17 15 16 16 15 13 13 13 14 15 15 15 15 16 15 14 14 14 14
4 2 2 4 6 7 3 3 6 6 6 3 3 5 3 4 3 9 8 7 9 10 9 8 13 16 16 17 17 17 17 15 14 14 15 16 16 16 17 17 15 14 15 14
7 2 7 8 7 7 11 16 13 5 5 7 7 12 6 7 7 7 9 9 8 9 9 9 16 18 19 19 18 19 18 18 17 16 17 18 17 17 16 16 15 14 15 14
7 4 4 6 1 4 5 10 8 13 8 12 4 7 2 6 5 3 8 9 8 10 10 10 15 17 19 20 21 21 22 21 20 20 19 19 17 17 17 16 15 14 15 15
5 4 9 13 10 8 7 13 15 15 11 21 17 27 4 4 7 8 8 9 10 12 14 12 12 18 21 24 24 22 21 24 24 22 21 19 18 18 18 16 16 15 14 14
4 5 4 13 16 13 14 8 17 17 22 17 29 25 20 16 11 11 13 11 11 13 14 15 14 17 22 22 23 24 25 26 26 24 22 22 20 19 19 18 17 16 15 14
7 7 10 18 21 13 15 16 9 17 26 24 27 28 21 8 3 4 11 14 15 15 17 17 16 22 25 27 27 28 29 30 29 28 26 25 24 22 21 19 18 17 15 15
4 4 7 13 14 13 15 22 24 22 13 17 19 33 14 13 11 12 13 17 19 20 19 20 20 25 28 31 31 30 31 33 30 29 28 27 26 24 23 21 19 18 16 15
6 7 4 10 4 15 9 13 25 26 26 24 22 25 21 12 11 11 11 18 19 17 19 19 24 29 32 31 31 30 31 33 31 31 31 29 28 26 24 22 20 19 17 16
18 8 4 6 8 11 8 8 8 13 27 26 26 34 34 22 12 15 17 14 19 21 21 30 37 36 35 36 36 34 33 32 31 30 33 33 31 29 27 25 23 20 19 16
16 15 10 11 13 9 16 22 8 9 16 24 22 30 27 17 12 21 18 19 18 23 28 28 35 37 37 39 40 37 34 34 32 32 35 35 33 31 30 28 25 22 18 17
5 7 16 17 13 11 16 18 3 16 13 20 20 23 23 17 17 28 8 10 16 19 19 28 36 39 40 41 43 38 36 36 35 36 36 35 33 32 30 28 26 23 20 18
8 5 10 8 13 26 7 9 24 7 8 10 7 12 7 9 12 18 14 8 10 11 22 32 33 33 37 41 42 38 37 36 38 39 37 36 34 31 29 29 26 23 22 20
10 14 9 9 15 7 4 4 9 5 6 7 4 8 10 13 11 11 6 9 11 14 24 32 32 31 34 40 41 37 36 40 42 40 38 38 34 32 31 29 27 25 22 21
8 2 10 4 27 24 26 18 6 4 7 5 5 6 6 11 12 16 7 6 9 15 23 31 31 30 33 38 39 36 38 43 44 40 40 39 37 33 30 28 28 27 26 24
8 1 6 20 28 19 26 13 15 16 10 8 7 7 7 10 15 10 11 7 9 16 24 30 31 30 32 36 35 36 42 47 41 38 37 35 34 34 31 29 30 29 27 26
12 19 12 17 15 12 17 8 5 6 9 9 6 6 6 8 13 9 8 7 10 14 22 24 26 28 30 34 32 38 45 47 43 36 34 35 34 33 32 29 24 21 21 20
Wind_Direction
209 209 184 188 193 72 28 165 197 220 141 270 242 254 211 190 203 224 190 170 174 175 169 161 160 145 134 126 123 116 132 150 141 144 146 138 100 88 82 69 64 55 52 50
118 239 202 52 61 103 275 181 212 168 95 153 292 277 265 204 203 205 200 181 176 160 184 170 166 159 146 133 128 117 113 121 150 169 127 149 157 120 96 70 62 54 52 53
206 81 192 131 176 200 224 253 224 247 140 219 295 273 239 241 192 205 212 187 181 179 188 175 172 167 150 138 135 137 125 119 135 156 159 148 140 118 90 65 62 59 51 55
247 175 169 148 224 207 246 177 271 282 172 260 138 291 250 225 224 198 206 199 185 174 181 172 178 165 157 158 148 146 147 148 156 169 174 167 170 149 120 99 72 61 61 54
186 141 172 188 216 207 82 83 135 203 250 274 185 274 273 229 220 211 210 205 187 182 181 174 168 167 163 171 157 153 142 146 144 155 174 164 132 138 142 119 97 71 58 58
231 17 256 219 204 214 105 164 166 286 240 279 217 180 252 197 231 232 208 205 193 181 173 166 163 152 158 174 161 151 151 138 135 145 142 151 149 144 137 124 111 89 73 69
249 207 149 352 226 184 159 162 308 263 241 237 185 186 246 281 244 222 205 198 188 175 167 158 146 156 166 172 174 159 157 143 149 150 150 152 151 143 137 133 121 113 90 80
210 221 165 183 212 173 207 198 180 226 233 308 28 243 259 171 80 43 46 222 157 160 158 154 152 172 173 175 178 164 164 154 157 153 153 148 152 150 142 135 134 118 107 100
243 225 131 152 195 205 183 219 238 316 350 348 239 256 286 93 107 207 206 149 159 157 156 155 162 179 169 171 177 171 174 166 165 157 154 152 157 149 141 135 132 122 113 104
314 294 95 104 49 283 255 169 207 232 227 241 245 245 243 220 222 185 190 163 154 152 156 158 162 160 169 176 176 177 176 176 167 157 156 158 157 150 141 140 130 131 119 112
176 271 356 70 210 188 192 231 236 176 213 228 296 259 239 108 109 182 182 182 161 162 157 150 153 168 179 179 177 171 169 169 171 169 161 157 145 140 139 140 135 132 124 116
191 274 243 204 221 224 231 218 215 209 223 220 252 257 241 170 151 149 175 171 165 160 155 155 163 176 181 182 179 175 174 177 176 171 163 157 151 144 144 140 141 137 124 116
165 223 253 316 224 199 221 235 244 241 255 250 206 263 53 92 132 168 163 166 171 162 166 166 170 178 184 188 182 180 179 179 174 171 168 154 154 151 151 147 145 140 132 126
353 239 201 222 221 160 200 219 227 224 232 242 238 252 247 201 198 187 196 174 175 176 178 179 180 184 186 187 186 179 179 182 174 174 167 159 162 160 153 151 152 146 140 135
127 243 304 279 271 273 264 223 224 227 234 231 242 248 246 251 253 207 195 167 172 185 189 191 185 187 192 186 181 181 180 182 178 173 168 168 166 164 160 161 158 152 150 142
175 241 241 265 267 263 272 270 256 237 235 242 253 260 253 240 265 149 172 177 192 194 197 195 192 190 190 186 182 180 180 182 180 177 174 173 172 170 167 166 162 159 155 150
293 230 198 243 243 263 254 236 243 245 255 240 239 248 258 254 250 248 188 192 197 200 195 196 195 193 190 187 183 181 179 182 179 178 177 177 174 172 171 169 166 164 161 157
224 255 308 260 155 225 234 239 232 239 240 243 257 265 260 242 249 236 209 201 205 196 197 200 193 191 189 185 184 179 178 179 177 179 180 179 178 177 174 173 172 170 169 168
213 223 243 265 254 266 275 249 210 224 246 241 242 253 257 261 266 265 237 216 209 197 200 199 193 185 180 180 180 176 176 177 177 177 181 184 183 180 178 177 177 176 173 173
220 216 221 243 261 269 242 249 208 222 251 242 233 245 257 253 252 259 250 225 208 204 205 189 181 178 176 180 175 174 175 177 181 180 184 187 186 186 183 183 181 180 182 179
199 214 222 235 249 251 256 266 120 214 238 258 233 245 254 243 235 255 202 234 209 206 184 173 173 179 183 176 174 176 176 183 180 183 186 187 188 189 187 183 184 182 180 186
217 214 225 230 244 256 238 277 219 234 271 322 322 293 274 254 257 260 252 202 164 163 168 173 176 180 179 177 176 177 181 178 179 182 184 186 188 186 186 186 185 185 186 189
244 224 243 228 252 270 241 325 295 357 294 311 19 326 330 313 307 295 231 188 179 170 173 175 176 176 178 179 181 179 179 172 176 178 179 185 185 186 189 188 185 185 191 195
252 233 244 262 260 263 277 292 248 257 245 244 226 259 289 296 300 297 267 207 180 175 176 176 175 176 176 181 185 184 171 172 175 174 180 184 183 186 189 192 194 194 195 199
245 58 247 257 263 272 266 259 263 263 222 231 220 199 245 280 292 278 264 233 201 182 179 179 180 179 178 178 180 176 172 176 169 172 176 178 181 187 189 197 199 203 210 213
220 239 230 247 249 236 263 262 203 211 237 249 244 270 209 216 271 270 247 226 203 187 176 179 180 175 174 174 175 173 177 176 171 167 171 176 181 187 192 194 197 210 219 217